This is the latest recevied weather packets stored in our database for station/object KD0KHX-10. If no packets are shown the sender has not sent any weather packets the latest 10 day(s).
| Time | Temp. | Humidity | Pressure | Rain* | Wind** | Luminosity | Snow |
|---|---|---|---|---|---|---|---|
| 1777661703 | 16.67° C | 30% | 1012.2 hPa | 0 mm | - | - | - |
| 1777661403 | 17.78° C | 29% | 1012.3 hPa | 0 mm | - | - | - |
| 1777661103 | 17.78° C | 31% | 1012.2 hPa | 0 mm | - | - | - |
| 1777661073 | 17.78° C | 32% | 1012.2 hPa | 0 mm | - | - | - |
| 1777660503 | 17.78° C | 29% | 1012.4 hPa | 0 mm | - | - | - |
| 1777660338 | 18.33° C | 30% | 1012.3 hPa | 0 mm | - | - | - |
| 1777659903 | 17.78° C | 33% | 1012.3 hPa | 0 mm | - | - | - |
| 1777659603 | 17.22° C | 34% | 1012.4 hPa | 0 mm | - | - | - |
| 1777659303 | 16.11° C | 34% | 1012.6 hPa | 0 mm | - | - | - |
| 1777659273 | 16.11° C | 35% | 1012.6 hPa | 0 mm | - | - | - |
| 1777658703 | 17.22° C | 31% | 1012.6 hPa | 0 mm | - | - | - |
| 1777658673 | 17.22° C | 32% | 1012.7 hPa | 0 mm | - | - | - |
| 1777658372 | 17.22° C | 35% | 1012.7 hPa | 0 mm | - | - | - |
| 1777657938 | 17.22° C | 34% | 1012.7 hPa | 0 mm | - | - | - |
| 1777657503 | 17.78° C | 35% | 1012.8 hPa | 0 mm | - | - | - |
| 1777657472 | 17.78° C | 35% | 1012.8 hPa | 0 mm | - | - | - |
| 1777657038 | 16.67° C | 33% | 1012.8 hPa | 0 mm | - | - | - |
| 1777656603 | 16.11° C | 37% | 1012.9 hPa | 0 mm | - | - | - |
| 1777656438 | 15.56° C | 37% | 1013 hPa | 0 mm | - | - | - |
| 1777656003 | 16.67° C | 38% | 1013 hPa | 0 mm | - | - | - |
| 1777655703 | 15.56° C | 39% | 1013.1 hPa | 0 mm | - | - | - |
| 1777655403 | 15.56° C | 39% | 1013.2 hPa | 0 mm | - | - | - |
| 1777655103 | 15° C | 40% | 1013.2 hPa | 0 mm | - | - | - |
| 1777654803 | 15° C | 38% | 1013.2 hPa | 0 mm | - | - | - |
| 1777654773 | 15° C | 38% | 1013.2 hPa | 0 mm | - | - | - |
* Rain latest hour (hover to see other rain measurements)
** Current wind speed in m/s (hover to see current wind gust speed)